Time,TemperatureF,DewpointF,PressureIn,WindDirection,WindDirectionDegrees,WindSpeedMPH,WindSpeedGustMPH,Humidity,HourlyPrecipIn,Conditions,Clouds,dailyrainin,SoftwareType,DateUTC
2013-11-05 00:03:00,51.2,46.8,30.28,SE,127,14.0,14.0,85,0.00,,,0.00,Wunderground v.1.15,2013-11-05 06:03:00,
2013-11-05 00:08:00,51.1,47.1,30.28,SE,136,14.0,15.0,86,0.00,,,0.00,Wunderground v.1.15,2013-11-05 06:08:00,
2013-11-05 00:14:00,51.0,47.0,30.28,SE,128,15.0,15.0,86,0.00,,,0.00,Wunderground v.1.15,2013-11-05 06:14:00,
2013-11-05 00:20:00,50.9,47.2,30.28,SE,131,14.0,15.0,87,0.00,,,0.00,Wunderground v.1.15,2013-11-05 06:20:00,
2013-11-05 00:25:00,50.8,47.1,30.29,SE,130,14.0,15.0,87,0.00,,,0.00,Wunderground v.1.15,2013-11-05 06:25:00,
2013-11-05 00:31:00,50.6,46.9,30.29,SE,137,15.0,15.0,87,0.00,,,0.00,Wunderground v.1.15,2013-11-05 06:31:00,
2013-11-05 00:37:00,50.5,46.8,30.29,SE,137,13.0,15.0,87,0.00,,,0.00,Wunderground v.1.15,2013-11-05 06:37:00,
2013-11-05 00:43:00,50.3,46.9,30.29,SE,136,14.0,15.0,88,0.00,,,0.00,Wunderground v.1.15,2013-11-05 06:43:00,
2013-11-05 00:48:00,50.3,46.6,30.29,SE,130,14.0,15.0,87,0.00,,,0.00,Wunderground v.1.15,2013-11-05 06:48:00,
2013-11-05 00:54:00,50.2,46.5,30.29,SE,136,15.0,16.0,87,0.00,,,0.00,Wunderground v.1.15,2013-11-05 06:54:00,
2013-11-05 01:00:00,50.0,46.6,30.29,SE,134,15.0,15.0,88,0.00,,,0.00,Wunderground v.1.15,2013-11-05 07:00:00,
2013-11-05 01:06:00,49.9,46.2,30.28,SE,132,16.0,16.0,87,0.00,,,0.00,Wunderground v.1.15,2013-11-05 07:06:00,
2013-11-05 01:11:00,49.7,46.6,30.27,SE,127,12.0,15.0,89,0.00,,,0.00,Wunderground v.1.15,2013-11-05 07:11:00,
2013-11-05 01:17:00,49.5,46.4,30.27,ESE,119,11.0,15.0,89,0.00,,,0.00,Wunderground v.1.15,2013-11-05 07:17:00,
2013-11-05 01:23:00,49.4,46.3,30.28,West,279,12.0,13.0,89,0.00,,,0.00,Wunderground v.1.15,2013-11-05 07:23:00,
2013-11-05 01:29:00,49.4,46.3,30.28,ESE,118,12.0,13.0,89,0.00,,,0.00,Wunderground v.1.15,2013-11-05 07:29:00,
2013-11-05 01:35:00,49.4,46.6,30.27,ESE,112,6.0,12.0,90,0.00,,,0.00,Wunderground v.1.15,2013-11-05 07:35:00,
2013-11-05 01:41:00,49.3,46.5,30.27,ESE,113,9.0,9.0,90,0.00,,,0.00,Wunderground v.1.15,2013-11-05 07:41:00,
2013-11-05 01:47:00,49.2,46.4,30.26,ESE,109,4.0,10.0,90,0.00,,,0.00,Wunderground v.1.15,2013-11-05 07:47:00,
2013-11-05 01:52:00,49.2,46.4,30.27,West,279,9.0,9.0,90,0.00,,,0.00,Wunderground v.1.15,2013-11-05 07:52:00,
2013-11-05 01:58:00,49.2,46.4,30.28,ESE,116,11.0,13.0,90,0.00,,,0.00,Wunderground v.1.15,2013-11-05 07:58:00,
2013-11-05 02:03:00,49.2,46.4,30.27,ESE,119,13.0,13.0,90,0.00,,,0.00,Wunderground v.1.15,2013-11-05 08:03:00,
2013-11-05 02:08:00,49.1,46.3,30.26,ESE,106,5.0,13.0,90,0.00,,,0.00,Wunderground v.1.15,2013-11-05 08:08:00,
2013-11-05 02:13:00,49.1,46.6,30.26,ESE,115,12.0,12.0,91,0.00,,,0.00,Wunderground v.1.15,2013-11-05 08:13:00,
2013-11-05 02:18:00,49.0,46.5,30.26,East,97,5.0,13.0,91,0.00,,,0.00,Wunderground v.1.15,2013-11-05 08:18:00,
2013-11-05 02:23:00,48.9,46.1,30.26,West,279,11.0,13.0,90,0.00,,,0.00,Wunderground v.1.15,2013-11-05 08:23:00,
2013-11-05 02:28:00,48.9,46.1,30.27,ESE,122,13.0,13.0,90,0.00,,,0.00,Wunderground v.1.15,2013-11-05 08:28:00,
2013-11-05 02:33:00,49.0,46.2,30.26,ESE,105,4.0,11.0,90,0.00,,,0.00,Wunderground v.1.15,2013-11-05 08:33:00,
2013-11-05 02:38:00,49.1,46.0,30.26,ESE,117,12.0,14.0,89,0.00,,,0.00,Wunderground v.1.15,2013-11-05 08:38:00,
2013-11-05 02:43:00,49.1,46.0,30.27,West,279,11.0,14.0,89,0.00,,,0.00,Wunderground v.1.15,2013-11-05 08:43:00,
2013-11-05 02:48:00,49.1,46.0,30.27,ESE,110,11.0,16.0,89,0.00,,,0.00,Wunderground v.1.15,2013-11-05 08:48:00,
2013-11-05 02:53:00,49.2,46.1,30.27,ESE,119,13.0,15.0,89,0.00,,,0.00,Wunderground v.1.15,2013-11-05 08:53:00,
2013-11-05 02:58:00,49.2,46.1,30.26,ESE,119,12.0,17.0,89,0.00,,,0.00,Wunderground v.1.15,2013-11-05 08:58:00,
2013-11-05 03:03:00,49.1,45.7,30.27,ESE,119,12.0,15.0,88,0.00,,,0.00,Wunderground v.1.15,2013-11-05 09:03:00,
2013-11-05 03:08:00,49.1,45.4,30.27,ESE,119,12.0,16.0,87,0.00,,,0.00,Wunderground v.1.15,2013-11-05 09:08:00,
2013-11-05 03:13:00,49.3,45.6,30.27,ESE,119,13.0,16.0,87,0.00,,,0.00,Wunderground v.1.15,2013-11-05 09:13:00,
2013-11-05 03:18:00,49.5,45.8,30.27,West,279,10.0,16.0,87,0.00,,,0.00,Wunderground v.1.15,2013-11-05 09:18:00,
2013-11-05 03:23:00,49.6,45.6,30.27,SE,130,13.0,16.0,86,0.00,,,0.00,Wunderground v.1.15,2013-11-05 09:23:00,
2013-11-05 03:28:00,49.8,45.5,30.27,ESE,119,12.0,16.0,85,0.00,,,0.00,Wunderground v.1.15,2013-11-05 09:28:00,
2013-11-05 03:33:00,50.1,45.5,30.27,SE,124,14.0,16.0,84,0.00,,,0.00,Wunderground v.1.15,2013-11-05 09:33:00,
2013-11-05 03:38:00,50.4,45.7,30.28,ESE,119,11.0,17.0,84,0.00,,,0.00,Wunderground v.1.15,2013-11-05 09:38:00,
2013-11-05 03:43:00,50.5,45.5,30.27,ESE,119,13.0,15.0,83,0.00,,,0.00,Wunderground v.1.15,2013-11-05 09:43:00,
2013-11-05 03:48:00,50.6,45.9,30.27,ESE,116,13.0,16.0,84,0.00,,,0.00,Wunderground v.1.15,2013-11-05 09:48:00,
2013-11-05 03:53:00,50.6,45.3,30.27,ESE,123,13.0,18.0,82,0.00,,,0.00,Wunderground v.1.15,2013-11-05 09:53:00,
2013-11-05 03:58:00,50.8,45.5,30.27,ESE,114,12.0,18.0,82,0.00,,,0.00,Wunderground v.1.15,2013-11-05 09:58:00,
2013-11-05 04:03:00,50.9,45.6,30.27,ESE,114,13.0,17.0,82,0.00,,,0.00,Wunderground v.1.15,2013-11-05 10:03:00,
2013-11-05 04:08:00,51.0,45.4,30.27,West,279,16.0,19.0,81,0.00,,,0.00,Wunderground v.1.15,2013-11-05 10:08:00,
2013-11-05 04:13:00,51.2,45.2,30.27,ESE,119,13.0,19.0,80,0.00,,,0.00,Wunderground v.1.15,2013-11-05 10:13:00,
2013-11-05 04:18:00,51.3,45.3,30.27,SE,127,18.0,19.0,80,0.00,,,0.00,Wunderground v.1.15,2013-11-05 10:18:00,
2013-11-05 04:23:00,51.4,45.1,30.27,SE,135,15.0,20.0,79,0.00,,,0.00,Wunderground v.1.15,2013-11-05 10:23:00,
2013-11-05 04:28:00,51.5,45.2,30.28,West,279,14.0,20.0,79,0.00,,,0.00,Wunderground v.1.15,2013-11-05 10:28:00,
2013-11-05 04:33:00,51.6,45.3,30.28,ESE,122,16.0,20.0,79,0.00,,,0.00,Wunderground v.1.15,2013-11-05 10:33:00,
2013-11-05 04:38:00,51.6,45.0,30.27,SE,138,15.0,21.0,78,0.00,,,0.00,Wunderground v.1.15,2013-11-05 10:38:00,
2013-11-05 04:43:00,51.7,45.1,30.27,SE,129,19.0,22.0,78,0.00,,,0.00,Wunderground v.1.15,2013-11-05 10:43:00,
2013-11-05 04:48:00,51.8,44.8,30.28,West,279,17.0,22.0,77,0.00,,,0.00,Wunderground v.1.15,2013-11-05 10:48:00,
2013-11-05 04:53:00,51.9,45.3,30.28,West,279,14.0,18.0,78,0.00,,,0.00,Wunderground v.1.15,2013-11-05 10:53:00,
2013-11-05 04:58:00,51.9,45.6,30.28,ESE,113,9.0,18.0,79,0.00,,,0.00,Wunderground v.1.15,2013-11-05 10:58:00,
2013-11-05 05:03:00,51.8,45.2,30.28,West,279,10.0,15.0,78,0.00,,,0.00,Wunderground v.1.15,2013-11-05 11:03:00,
2013-11-05 05:08:00,51.6,45.0,30.28,ESE,120,9.0,16.0,78,0.00,,,0.00,Wunderground v.1.15,2013-11-05 11:08:00,
2013-11-05 05:13:00,51.5,45.5,30.28,ESE,119,13.0,14.0,80,0.00,,,0.00,Wunderground v.1.15,2013-11-05 11:13:00,
2013-11-05 05:18:00,51.2,45.6,30.28,ESE,113,4.0,14.0,81,0.00,,,0.00,Wunderground v.1.15,2013-11-05 11:18:00,
2013-11-05 05:23:00,51.0,45.7,30.27,ESE,112,7.0,11.0,82,0.00,,,0.00,Wunderground v.1.15,2013-11-05 11:23:00,
2013-11-05 05:28:00,50.7,45.7,30.27,West,279,6.0,11.0,83,0.00,,,0.00,Wunderground v.1.15,2013-11-05 11:28:00,
2013-11-05 05:33:00,50.6,45.3,30.27,West,279,7.0,10.0,82,0.00,,,0.00,Wunderground v.1.15,2013-11-05 11:33:00,
2013-11-05 05:38:00,50.5,45.5,30.28,ESE,109,9.0,13.0,83,0.00,,,0.00,Wunderground v.1.15,2013-11-05 11:38:00,
2013-11-05 05:43:00,50.3,45.3,30.28,ESE,113,10.0,14.0,83,0.00,,,0.00,Wunderground v.1.15,2013-11-05 11:43:00,
2013-11-05 05:48:00,50.2,44.9,30.28,ESE,119,11.0,16.0,82,0.00,,,0.00,Wunderground v.1.15,2013-11-05 11:48:00,
2013-11-05 05:53:00,50.1,45.5,30.28,ESE,116,12.0,15.0,84,0.00,,,0.00,Wunderground v.1.15,2013-11-05 11:53:00,
2013-11-05 05:58:00,50.1,44.5,30.28,ESE,123,14.0,15.0,81,0.00,,,0.00,Wunderground v.1.15,2013-11-05 11:58:00,
2013-11-05 06:03:00,50.2,45.2,30.28,ESE,116,13.0,15.0,83,0.00,,,0.00,Wunderground v.1.15,2013-11-05 12:03:00,
2013-11-05 06:08:00,50.3,44.4,30.28,West,279,10.0,17.0,80,0.00,,,0.00,Wunderground v.1.15,2013-11-05 12:08:00,
2013-11-05 06:13:00,50.5,44.6,30.28,ESE,115,13.0,17.0,80,0.00,,,0.00,Wunderground v.1.15,2013-11-05 12:13:00,
2013-11-05 06:18:00,50.6,44.3,30.29,ESE,121,11.0,17.0,79,0.00,,,0.00,Wunderground v.1.15,2013-11-05 12:18:00,
2013-11-05 06:23:00,50.8,44.2,30.29,SE,126,13.0,17.0,78,0.00,,,0.00,Wunderground v.1.15,2013-11-05 12:23:00,
2013-11-05 06:28:00,51.0,44.4,30.29,SE,129,14.0,17.0,78,0.00,,,0.00,Wunderground v.1.15,2013-11-05 12:28:00,
2013-11-05 06:33:00,51.2,44.6,30.30,SE,131,12.0,16.0,78,0.00,,,0.00,Wunderground v.1.15,2013-11-05 12:33:00,
2013-11-05 06:38:00,51.3,44.7,30.29,SE,136,16.0,17.0,78,0.00,,,0.00,Wunderground v.1.15,2013-11-05 12:38:00,
2013-11-05 06:43:00,51.4,45.1,30.29,ESE,121,10.0,15.0,79,0.00,,,0.00,Wunderground v.1.15,2013-11-05 12:43:00,
2013-11-05 06:48:00,51.5,44.5,30.29,SE,124,11.0,15.0,77,0.00,,,0.00,Wunderground v.1.15,2013-11-05 12:48:00,
2013-11-05 06:53:00,51.6,44.6,30.29,West,279,11.0,16.0,77,0.00,,,0.00,Wunderground v.1.15,2013-11-05 12:53:00,
2013-11-05 06:58:00,51.6,44.6,30.30,SE,125,10.0,16.0,77,0.00,,,0.00,Wunderground v.1.15,2013-11-05 12:58:00,
2013-11-05 07:03:00,51.7,44.4,30.29,ESE,122,12.0,15.0,76,0.00,,,0.00,Wunderground v.1.15,2013-11-05 13:03:00,
2013-11-05 07:08:00,51.8,44.5,30.29,ESE,118,10.0,16.0,76,0.00,,,0.00,Wunderground v.1.15,2013-11-05 13:08:00,
2013-11-05 07:13:00,51.9,44.6,30.30,West,279,13.0,17.0,76,0.00,,,0.00,Wunderground v.1.15,2013-11-05 13:13:00,
2013-11-05 07:18:00,51.9,44.6,30.30,West,279,13.0,17.0,76,0.00,,,0.00,Wunderground v.1.15,2013-11-05 13:18:00,
2013-11-05 07:23:00,52.0,44.3,30.30,SE,128,12.0,16.0,75,0.00,,,0.00,Wunderground v.1.15,2013-11-05 13:23:00,
2013-11-05 07:28:00,52.1,44.4,30.30,SE,129,12.0,16.0,75,0.00,,,0.00,Wunderground v.1.15,2013-11-05 13:28:00,
2013-11-05 07:33:00,52.2,44.5,30.30,SE,124,11.0,14.0,75,0.00,,,0.00,Wunderground v.1.15,2013-11-05 13:33:00,
2013-11-05 07:38:00,52.3,44.6,30.31,SE,128,12.0,15.0,75,0.00,,,0.00,Wunderground v.1.15,2013-11-05 13:38:00,
2013-11-05 07:43:00,52.5,44.8,30.31,SE,128,17.0,17.0,75,0.00,,,0.00,Wunderground v.1.15,2013-11-05 13:43:00,
2013-11-05 07:48:00,52.7,45.0,30.31,ESE,117,8.0,17.0,75,0.00,,,0.00,Wunderground v.1.15,2013-11-05 13:48:00,
2013-11-05 07:53:00,52.9,44.5,30.32,West,279,9.0,14.0,73,0.00,,,0.00,Wunderground v.1.15,2013-11-05 13:53:00,
2013-11-05 07:58:00,53.1,44.7,30.32,West,279,15.0,15.0,73,0.00,,,0.00,Wunderground v.1.15,2013-11-05 13:58:00,
2013-11-05 08:03:00,53.3,44.9,30.32,SE,132,11.0,15.0,73,0.00,,,0.00,Wunderground v.1.15,2013-11-05 14:03:00,
2013-11-05 08:08:00,53.5,44.7,30.32,West,279,14.0,17.0,72,0.00,,,0.00,Wunderground v.1.15,2013-11-05 14:08:00,
2013-11-05 08:13:00,53.6,44.8,30.32,SE,132,10.0,16.0,72,0.00,,,0.00,Wunderground v.1.15,2013-11-05 14:13:00,
2013-11-05 08:18:00,53.8,44.6,30.32,SE,126,9.0,16.0,71,0.00,,,0.00,Wunderground v.1.15,2013-11-05 14:18:00,
2013-11-05 08:23:00,54.1,44.9,30.33,SE,129,17.0,19.0,71,0.00,,,0.00,Wunderground v.1.15,2013-11-05 14:23:00,
2013-11-05 08:28:00,54.4,45.2,30.32,SE,138,12.0,19.0,71,0.00,,,0.00,Wunderground v.1.15,2013-11-05 14:28:00,
2013-11-05 08:33:00,54.9,44.9,30.32,SE,127,11.0,16.0,69,0.00,,,0.00,Wunderground v.1.15,2013-11-05 14:33:00,
2013-11-05 08:38:00,55.4,45.0,30.32,SE,136,15.0,18.0,68,0.00,,,0.00,Wunderground v.1.15,2013-11-05 14:38:00,
2013-11-05 08:43:00,55.8,44.6,30.32,West,279,13.0,19.0,66,0.00,,,0.00,Wunderground v.1.15,2013-11-05 14:43:00,
2013-11-05 08:48:00,56.0,44.4,30.32,SE,127,10.0,19.0,65,0.00,,,0.00,Wunderground v.1.15,2013-11-05 14:48:00,
2013-11-05 08:53:00,56.0,44.0,30.32,SE,133,15.0,19.0,64,0.00,,,0.00,Wunderground v.1.15,2013-11-05 14:53:00,
2013-11-05 08:58:00,55.8,44.2,30.32,ESE,123,16.0,23.0,65,0.00,,,0.00,Wunderground v.1.15,2013-11-05 14:58:00,
2013-11-05 09:03:00,55.9,44.3,30.32,SE,141,16.0,20.0,65,0.00,,,0.00,Wunderground v.1.15,2013-11-05 15:03:00,
2013-11-05 09:08:00,56.0,44.4,30.32,SE,136,15.0,20.0,65,0.00,,,0.00,Wunderground v.1.15,2013-11-05 15:08:00,
2013-11-05 09:13:00,56.3,44.3,30.32,SE,138,15.0,20.0,64,0.00,,,0.00,Wunderground v.1.15,2013-11-05 15:13:00,
2013-11-05 09:18:00,56.6,44.6,30.32,SE,146,19.0,21.0,64,0.00,,,0.00,Wunderground v.1.15,2013-11-05 15:18:00,
2013-11-05 09:23:00,56.7,45.1,30.32,SE,128,18.0,19.0,65,0.00,,,0.00,Wunderground v.1.15,2013-11-05 15:23:00,
2013-11-05 09:28:00,56.8,45.2,30.32,SE,144,19.0,19.0,65,0.00,,,0.00,Wunderground v.1.15,2013-11-05 15:28:00,
2013-11-05 09:33:00,57.1,45.0,30.32,SE,135,14.0,18.0,64,0.00,,,0.00,Wunderground v.1.15,2013-11-05 15:33:00,
2013-11-05 09:38:00,57.4,45.3,30.32,ESE,116,11.0,19.0,64,0.00,,,0.00,Wunderground v.1.15,2013-11-05 15:38:00,
2013-11-05 09:43:00,57.7,45.6,30.32,ESE,116,6.0,18.0,64,0.00,,,0.00,Wunderground v.1.15,2013-11-05 15:43:00,
2013-11-05 09:48:00,57.9,45.4,30.32,West,279,15.0,18.0,63,0.00,,,0.00,Wunderground v.1.15,2013-11-05 15:48:00,
2013-11-05 09:53:00,58.1,45.1,30.32,SE,133,15.0,19.0,62,0.00,,,0.00,Wunderground v.1.15,2013-11-05 15:53:00,
2013-11-05 09:58:00,58.2,45.7,30.32,SE,127,15.0,19.0,63,0.00,,,0.00,Wunderground v.1.15,2013-11-05 15:58:00,
2013-11-05 10:03:00,58.5,45.1,30.31,West,279,14.0,20.0,61,0.00,,,0.00,Wunderground v.1.15,2013-11-05 16:03:00,
2013-11-05 10:08:00,58.5,45.5,30.31,West,279,11.0,20.0,62,0.00,,,0.00,Wunderground v.1.15,2013-11-05 16:08:00,
2013-11-05 10:13:00,58.6,46.0,30.31,ESE,115,11.0,15.0,63,0.00,,,0.00,Wunderground v.1.15,2013-11-05 16:13:00,
2013-11-05 10:18:00,58.7,45.7,30.31,SE,126,11.0,20.0,62,0.00,,,0.00,Wunderground v.1.15,2013-11-05 16:18:00,
2013-11-05 10:23:00,58.8,46.2,30.30,ESE,122,12.0,18.0,63,0.00,,,0.00,Wunderground v.1.15,2013-11-05 16:23:00,
2013-11-05 10:28:00,59.0,46.0,30.30,ESE,121,13.0,18.0,62,0.00,,,0.00,Wunderground v.1.15,2013-11-05 16:28:00,
2013-11-05 10:33:00,59.2,45.8,30.30,ESE,113,7.0,17.0,61,0.00,,,0.00,Wunderground v.1.15,2013-11-05 16:33:00,
2013-11-05 10:38:00,59.5,46.5,30.30,SE,129,13.0,17.0,62,0.00,,,0.00,Wunderground v.1.15,2013-11-05 16:38:00,
2013-11-05 10:43:00,59.8,45.9,30.29,West,279,12.0,13.0,60,0.00,,,0.00,Wunderground v.1.15,2013-11-05 16:43:00,
2013-11-05 10:48:00,60.2,46.3,30.30,SE,126,14.0,17.0,60,0.00,,,0.00,Wunderground v.1.15,2013-11-05 16:48:00,
2013-11-05 10:53:00,60.6,46.2,30.29,ESE,120,11.0,14.0,59,0.00,,,0.00,Wunderground v.1.15,2013-11-05 16:53:00,
2013-11-05 10:58:00,60.8,46.8,30.29,West,279,11.0,15.0,60,0.00,,,0.00,Wunderground v.1.15,2013-11-05 16:58:00,
2013-11-05 11:03:00,61.0,46.6,30.28,ESE,122,15.0,19.0,59,0.00,,,0.00,Wunderground v.1.15,2013-11-05 17:03:00,
2013-11-05 11:08:00,61.2,46.8,30.28,SE,130,9.0,19.0,59,0.00,,,0.00,Wunderground v.1.15,2013-11-05 17:08:00,
2013-11-05 11:13:00,61.6,47.6,30.27,ESE,118,9.0,13.0,60,0.00,,,0.00,Wunderground v.1.15,2013-11-05 17:13:00,
2013-11-05 11:18:00,62.2,47.2,30.27,ESE,119,10.0,13.0,58,0.00,,,0.00,Wunderground v.1.15,2013-11-05 17:18:00,
2013-11-05 11:23:00,62.5,48.4,30.27,ESE,121,11.0,16.0,60,0.00,,,0.00,Wunderground v.1.15,2013-11-05 17:23:00,
2013-11-05 11:28:00,62.8,47.8,30.27,West,279,12.0,17.0,58,0.00,,,0.00,Wunderground v.1.15,2013-11-05 17:28:00,
2013-11-05 11:33:00,63.1,47.6,30.27,West,279,14.0,16.0,57,0.00,,,0.00,Wunderground v.1.15,2013-11-05 17:33:00,
2013-11-05 11:38:00,63.1,47.6,30.27,ESE,120,11.0,16.0,57,0.00,,,0.00,Wunderground v.1.15,2013-11-05 17:38:00,
2013-11-05 11:43:00,63.2,47.7,30.27,ESE,111,7.0,13.0,57,0.00,,,0.00,Wunderground v.1.15,2013-11-05 17:43:00,
2013-11-05 11:48:00,63.3,48.3,30.27,West,279,3.0,13.0,58,0.00,,,0.00,Wunderground v.1.15,2013-11-05 17:48:00,
2013-11-05 11:53:00,63.4,47.4,30.26,SE,126,6.0,11.0,56,0.00,,,0.00,Wunderground v.1.15,2013-11-05 17:53:00,
2013-11-05 11:58:00,63.4,48.4,30.26,East,97,6.0,12.0,58,0.00,,,0.00,Wunderground v.1.15,2013-11-05 17:58:00,
2013-11-05 12:03:00,63.5,47.5,30.25,West,279,12.0,17.0,56,0.00,,,0.00,Wunderground v.1.15,2013-11-05 18:03:00,
2013-11-05 12:08:00,63.6,48.1,30.25,SE,130,9.0,17.0,57,0.00,,,0.00,Wunderground v.1.15,2013-11-05 18:08:00,
2013-11-05 12:13:00,63.7,48.2,30.25,West,279,9.0,12.0,57,0.00,,,0.00,Wunderground v.1.15,2013-11-05 18:13:00,
2013-11-05 12:18:00,63.7,48.2,30.25,ESE,109,2.0,12.0,57,0.00,,,0.00,Wunderground v.1.15,2013-11-05 18:18:00,
2013-11-05 12:23:00,63.6,48.1,30.24,ESE,117,8.0,12.0,57,0.00,,,0.00,Wunderground v.1.15,2013-11-05 18:23:00,
2013-11-05 12:28:00,63.4,47.9,30.25,SE,138,9.0,12.0,57,0.00,,,0.00,Wunderground v.1.15,2013-11-05 18:28:00,
2013-11-05 12:33:00,63.3,47.8,30.24,SE,134,9.0,14.0,57,0.00,,,0.00,Wunderground v.1.15,2013-11-05 18:33:00,
2013-11-05 12:38:00,63.2,48.6,30.24,SE,127,12.0,14.0,59,0.00,,,0.00,Wunderground v.1.15,2013-11-05 18:38:00,
2013-11-05 12:43:00,63.1,48.5,30.24,West,279,10.0,13.0,59,0.00,,,0.00,Wunderground v.1.15,2013-11-05 18:43:00,
2013-11-05 12:48:00,62.9,47.9,30.23,West,279,5.0,13.0,58,0.00,,,0.00,Wunderground v.1.15,2013-11-05 18:48:00,
2013-11-05 12:53:00,62.8,48.3,30.23,SE,126,15.0,15.0,59,0.00,,,0.00,Wunderground v.1.15,2013-11-05 18:53:00,
2013-11-05 12:58:00,62.8,48.3,30.22,West,279,3.0,15.0,59,0.00,,,0.00,Wunderground v.1.15,2013-11-05 18:58:00,
2013-11-05 13:03:00,62.9,48.8,30.22,SE,132,6.0,10.0,60,0.00,,,0.00,Wunderground v.1.15,2013-11-05 19:03:00,
2013-11-05 13:08:00,62.9,48.3,30.22,West,279,10.0,11.0,59,0.00,,,0.00,Wunderground v.1.15,2013-11-05 19:08:00,
2013-11-05 13:13:00,63.0,48.9,30.22,ESE,113,4.0,10.0,60,0.00,,,0.00,Wunderground v.1.15,2013-11-05 19:13:00,
2013-11-05 13:18:00,63.2,48.6,30.22,SE,138,10.0,15.0,59,0.00,,,0.00,Wunderground v.1.15,2013-11-05 19:18:00,
2013-11-05 13:23:00,63.3,47.8,30.22,West,279,8.0,12.0,57,0.00,,,0.00,Wunderground v.1.15,2013-11-05 19:23:00,
2013-11-05 13:28:00,63.4,47.9,30.22,ESE,121,14.0,14.0,57,0.00,,,0.00,Wunderground v.1.15,2013-11-05 19:28:00,
2013-11-05 13:33:00,63.3,47.3,30.21,ESE,116,11.0,14.0,56,0.00,,,0.00,Wunderground v.1.15,2013-11-05 19:33:00,
2013-11-05 13:38:00,63.1,47.1,30.21,East,96,3.0,14.0,56,0.00,,,0.00,Wunderground v.1.15,2013-11-05 19:38:00,
2013-11-05 13:43:00,63.2,48.2,30.21,East,93,4.0,13.0,58,0.00,,,0.00,Wunderground v.1.15,2013-11-05 19:43:00,
2013-11-05 13:48:00,63.2,48.2,30.21,East,101,2.0,13.0,58,0.00,,,0.00,Wunderground v.1.15,2013-11-05 19:48:00,
2013-11-05 13:53:00,63.2,48.6,30.20,ESE,115,5.0,10.0,59,0.00,,,0.00,Wunderground v.1.15,2013-11-05 19:53:00,
2013-11-05 13:58:00,63.1,48.1,30.21,West,279,5.0,10.0,58,0.00,,,0.00,Wunderground v.1.15,2013-11-05 19:58:00,
2013-11-05 14:03:00,63.1,48.5,30.20,West,279,1.0,5.0,59,0.00,,,0.00,Wunderground v.1.15,2013-11-05 20:03:00,
2013-11-05 14:08:00,63.1,48.5,30.20,ESE,113,6.0,9.0,59,0.00,,,0.00,Wunderground v.1.15,2013-11-05 20:08:00,
2013-11-05 14:13:00,63.1,48.5,30.20,East,82,5.0,5.0,59,0.00,,,0.00,Wunderground v.1.15,2013-11-05 20:13:00,
2013-11-05 14:18:00,63.2,48.6,30.19,East,97,5.0,7.0,59,0.00,,,0.00,Wunderground v.1.15,2013-11-05 20:18:00,
2013-11-05 14:23:00,63.3,48.7,30.20,East,92,2.0,11.0,59,0.00,,,0.00,Wunderground v.1.15,2013-11-05 20:23:00,
2013-11-05 14:28:00,63.4,49.3,30.19,West,279,5.0,11.0,60,0.00,,,0.00,Wunderground v.1.15,2013-11-05 20:28:00,
2013-11-05 14:33:00,63.4,49.3,30.18,ENE,76,7.0,11.0,60,0.00,,,0.00,Wunderground v.1.15,2013-11-05 20:33:00,
2013-11-05 14:38:00,63.5,49.4,30.18,West,279,2.0,11.0,60,0.00,,,0.00,Wunderground v.1.15,2013-11-05 20:38:00,
2013-11-05 14:43:00,63.5,50.2,30.19,ENE,76,7.0,8.0,62,0.00,,,0.00,Wunderground v.1.15,2013-11-05 20:43:00,
2013-11-05 14:48:00,63.6,49.9,30.18,East,79,5.0,10.0,61,0.00,,,0.00,Wunderground v.1.15,2013-11-05 20:48:00,
2013-11-05 14:53:00,63.8,50.1,30.18,East,80,2.0,7.0,61,0.00,,,0.00,Wunderground v.1.15,2013-11-05 20:53:00,
2013-11-05 14:58:00,63.9,50.2,30.18,West,279,3.0,11.0,61,0.00,,,0.00,Wunderground v.1.15,2013-11-05 20:58:00,
2013-11-05 15:03:00,64.0,50.3,30.17,East,85,3.0,9.0,61,0.00,,,0.00,Wunderground v.1.15,2013-11-05 21:03:00,
2013-11-05 15:08:00,64.0,50.7,30.18,East,91,2.0,9.0,62,0.00,,,0.00,Wunderground v.1.15,2013-11-05 21:08:00,
2013-11-05 15:13:00,64.1,49.9,30.17,East,97,3.0,7.0,60,0.00,,,0.00,Wunderground v.1.15,2013-11-05 21:13:00,
2013-11-05 15:18:00,64.3,51.0,30.17,ESE,114,9.0,11.0,62,0.00,,,0.00,Wunderground v.1.15,2013-11-05 21:18:00,
2013-11-05 15:23:00,64.3,50.6,30.17,SE,126,10.0,13.0,61,0.00,,,0.00,Wunderground v.1.15,2013-11-05 21:23:00,
2013-11-05 15:28:00,64.4,50.2,30.17,ESE,120,12.0,15.0,60,0.00,,,0.00,Wunderground v.1.15,2013-11-05 21:28:00,
2013-11-05 15:33:00,64.5,50.3,30.17,West,279,11.0,15.0,60,0.00,,,0.00,Wunderground v.1.15,2013-11-05 21:33:00,
2013-11-05 15:38:00,64.5,50.3,30.17,ESE,118,8.0,15.0,60,0.00,,,0.00,Wunderground v.1.15,2013-11-05 21:38:00,
2013-11-05 15:43:00,64.5,50.3,30.17,ESE,111,6.0,14.0,60,0.00,,,0.00,Wunderground v.1.15,2013-11-05 21:43:00,
2013-11-05 15:48:00,64.5,50.3,30.17,ESE,113,10.0,14.0,60,0.00,,,0.00,Wunderground v.1.15,2013-11-05 21:48:00,
2013-11-05 15:53:00,64.4,49.8,30.17,ESE,118,9.0,12.0,59,0.00,,,0.00,Wunderground v.1.15,2013-11-05 21:53:00,
2013-11-05 15:58:00,64.3,49.7,30.17,ESE,117,11.0,13.0,59,0.00,,,0.00,Wunderground v.1.15,2013-11-05 21:58:00,
2013-11-05 16:03:00,64.2,49.1,30.16,ESE,107,9.0,14.0,58,0.00,,,0.00,Wunderground v.1.15,2013-11-05 22:03:00,
2013-11-05 16:08:00,64.1,50.4,30.17,West,279,3.0,14.0,61,0.00,,,0.00,Wunderground v.1.15,2013-11-05 22:08:00,
2013-11-05 16:13:00,64.0,50.3,30.17,East,90,3.0,12.0,61,0.00,,,0.00,Wunderground v.1.15,2013-11-05 22:13:00,
2013-11-05 16:18:00,63.9,50.6,30.16,ESE,120,9.0,12.0,62,0.00,,,0.00,Wunderground v.1.15,2013-11-05 22:18:00,
2013-11-05 16:23:00,63.6,50.3,30.16,ESE,105,4.0,9.0,62,0.00,,,0.00,Wunderground v.1.15,2013-11-05 22:23:00,
2013-11-05 16:28:00,63.4,52.2,30.16,ESE,113,5.0,10.0,67,0.00,,,0.00,Wunderground v.1.15,2013-11-05 22:28:00,
2013-11-05 16:33:00,63.1,51.1,30.16,East,92,3.0,11.0,65,0.00,,,0.00,Wunderground v.1.15,2013-11-05 22:33:00,
2013-11-05 16:38:00,62.9,51.8,30.16,East,99,3.0,11.0,67,0.00,,,0.00,Wunderground v.1.15,2013-11-05 22:38:00,
2013-11-05 16:43:00,62.6,51.9,30.16,East,98,2.0,7.0,68,0.00,,,0.00,Wunderground v.1.15,2013-11-05 22:43:00,
2013-11-05 16:48:00,62.3,51.6,30.16,ESE,107,3.0,7.0,68,0.00,,,0.00,Wunderground v.1.15,2013-11-05 22:48:00,
2013-11-05 16:53:00,62.1,51.4,30.16,East,84,3.0,4.0,68,0.00,,,0.00,Wunderground v.1.15,2013-11-05 22:53:00,
2013-11-05 16:58:00,61.8,50.7,30.16,East,85,3.0,7.0,67,0.00,,,0.00,Wunderground v.1.15,2013-11-05 22:58:00,
2013-11-05 17:03:00,61.5,51.6,30.16,East,84,3.0,8.0,70,0.00,,,0.00,Wunderground v.1.15,2013-11-05 23:03:00,
2013-11-05 17:08:00,61.3,52.6,30.16,East,87,2.0,8.0,73,0.00,,,0.00,Wunderground v.1.15,2013-11-05 23:08:00,
2013-11-05 17:13:00,61.1,52.0,30.16,East,86,3.0,7.0,72,0.00,,,0.00,Wunderground v.1.15,2013-11-05 23:13:00,
2013-11-05 17:18:00,60.9,52.6,30.16,East,85,1.0,7.0,74,0.00,,,0.00,Wunderground v.1.15,2013-11-05 23:18:00,
2013-11-05 17:23:00,60.6,51.5,30.16,East,84,10.0,11.0,72,0.00,,,0.00,Wunderground v.1.15,2013-11-05 23:23:00,
2013-11-05 17:28:00,60.4,51.7,30.15,East,82,5.0,11.0,73,0.00,,,0.00,Wunderground v.1.15,2013-11-05 23:28:00,
2013-11-05 17:33:00,60.2,51.1,30.15,East,84,4.0,10.0,72,0.00,,,0.00,Wunderground v.1.15,2013-11-05 23:33:00,
2013-11-05 17:38:00,60.1,51.8,30.16,East,87,3.0,10.0,74,0.00,,,0.00,Wunderground v.1.15,2013-11-05 23:38:00,
2013-11-05 17:43:00,59.9,51.6,30.16,East,87,2.0,5.0,74,0.00,,,0.00,Wunderground v.1.15,2013-11-05 23:43:00,
2013-11-05 17:48:00,59.8,52.2,30.16,East,90,2.0,5.0,76,0.00,,,0.00,Wunderground v.1.15,2013-11-05 23:48:00,
2013-11-05 17:53:00,59.6,52.0,30.16,West,279,2.0,3.0,76,0.00,,,0.00,Wunderground v.1.15,2013-11-05 23:53:00,
2013-11-05 17:58:00,59.4,51.8,30.15,East,86,2.0,3.0,76,0.00,,,0.00,Wunderground v.1.15,2013-11-05 23:58:00,
2013-11-05 18:03:00,59.3,51.4,30.15,East,90,1.0,2.0,75,0.00,,,0.00,Wunderground v.1.15,2013-11-06 00:03:00,
2013-11-05 18:08:00,59.1,50.5,30.16,West,279,4.0,6.0,73,0.00,,,0.00,Wunderground v.1.15,2013-11-06 00:08:00,
2013-11-05 18:13:00,58.9,51.0,30.15,ESE,103,4.0,5.0,75,0.00,,,0.00,Wunderground v.1.15,2013-11-06 00:13:00,
2013-11-05 18:18:00,58.7,50.4,30.15,ESE,108,10.0,12.0,74,0.00,,,0.00,Wunderground v.1.15,2013-11-06 00:18:00,
2013-11-05 18:23:00,58.6,50.7,30.15,ESE,107,8.0,11.0,75,0.00,,,0.00,Wunderground v.1.15,2013-11-06 00:23:00,
2013-11-05 18:28:00,58.5,51.0,30.15,ESE,113,9.0,11.0,76,0.00,,,0.00,Wunderground v.1.15,2013-11-06 00:28:00,
2013-11-05 18:33:00,58.3,50.8,30.15,ESE,113,7.0,12.0,76,0.00,,,0.00,Wunderground v.1.15,2013-11-06 00:33:00,
2013-11-05 18:38:00,58.2,50.3,30.15,West,279,5.0,13.0,75,0.00,,,0.00,Wunderground v.1.15,2013-11-06 00:38:00,
2013-11-05 18:43:00,58.1,50.9,30.14,ESE,102,7.0,13.0,77,0.00,,,0.00,Wunderground v.1.15,2013-11-06 00:43:00,
2013-11-05 18:48:00,58.1,50.2,30.14,ESE,115,10.0,15.0,75,0.00,,,0.00,Wunderground v.1.15,2013-11-06 00:48:00,
2013-11-05 18:53:00,58.2,50.0,30.14,ESE,102,10.0,16.0,74,0.00,,,0.00,Wunderground v.1.15,2013-11-06 00:53:00,
2013-11-05 18:58:00,58.6,50.0,30.15,West,279,16.0,21.0,73,0.00,,,0.00,Wunderground v.1.15,2013-11-06 00:58:00,
2013-11-05 19:03:00,58.9,50.3,30.14,ESE,119,14.0,18.0,73,0.00,,,0.00,Wunderground v.1.15,2013-11-06 01:03:00,
2013-11-05 19:08:00,59.2,49.8,30.14,ESE,117,13.0,19.0,71,0.00,,,0.00,Wunderground v.1.15,2013-11-06 01:08:00,
2013-11-05 19:13:00,59.7,49.9,30.14,ESE,111,15.0,18.0,70,0.00,,,0.00,Wunderground v.1.15,2013-11-06 01:13:00,
2013-11-05 19:18:00,60.2,50.0,30.14,SE,126,15.0,21.0,69,0.00,,,0.00,Wunderground v.1.15,2013-11-06 01:18:00,
2013-11-05 19:23:00,60.6,50.4,30.14,SE,130,17.0,24.0,69,0.00,,,0.00,Wunderground v.1.15,2013-11-06 01:23:00,
2013-11-05 19:28:00,60.8,50.2,30.13,SE,126,12.0,24.0,68,0.00,,,0.00,Wunderground v.1.15,2013-11-06 01:28:00,
2013-11-05 19:33:00,60.9,50.3,30.14,ESE,121,13.0,20.0,68,0.00,,,0.00,Wunderground v.1.15,2013-11-06 01:33:00,
2013-11-05 19:38:00,61.0,50.4,30.13,SE,125,15.0,20.0,68,0.00,,,0.00,Wunderground v.1.15,2013-11-06 01:38:00,
2013-11-05 19:43:00,61.1,50.5,30.13,SE,133,16.0,20.0,68,0.00,,,0.00,Wunderground v.1.15,2013-11-06 01:43:00,
2013-11-05 19:48:00,61.1,50.5,30.13,SE,126,16.0,20.0,68,0.00,,,0.00,Wunderground v.1.15,2013-11-06 01:48:00,
2013-11-05 19:53:00,61.1,50.8,30.13,ESE,117,22.0,22.0,69,0.00,,,0.00,Wunderground v.1.15,2013-11-06 01:53:00,
2013-11-05 19:58:00,61.1,50.8,30.13,ESE,111,15.0,22.0,69,0.00,,,0.00,Wunderground v.1.15,2013-11-06 01:58:00,
2013-11-05 20:03:00,61.1,50.8,30.13,ESE,119,21.0,21.0,69,0.00,,,0.00,Wunderground v.1.15,2013-11-06 02:03:00,
2013-11-05 20:08:00,61.1,51.2,30.13,ESE,121,12.0,21.0,70,0.00,,,0.00,Wunderground v.1.15,2013-11-06 02:08:00,
2013-11-05 20:13:00,61.2,51.3,30.13,ESE,119,14.0,21.0,70,0.00,,,0.00,Wunderground v.1.15,2013-11-06 02:13:00,
2013-11-05 20:18:00,61.1,51.2,30.13,West,279,15.0,21.0,70,0.00,,,0.00,Wunderground v.1.15,2013-11-06 02:18:00,
2013-11-05 20:23:00,60.9,51.0,30.14,SE,137,14.0,18.0,70,0.00,,,0.00,Wunderground v.1.15,2013-11-06 02:23:00,
2013-11-05 20:28:00,60.8,51.3,30.13,West,279,14.0,19.0,71,0.00,,,0.00,Wunderground v.1.15,2013-11-06 02:28:00,
2013-11-05 20:33:00,60.6,51.1,30.12,ESE,115,15.0,19.0,71,0.00,,,0.00,Wunderground v.1.15,2013-11-06 02:33:00,
2013-11-05 20:38:00,60.3,51.2,30.13,SE,131,13.0,19.0,72,0.00,,,0.00,Wunderground v.1.15,2013-11-06 02:38:00,
2013-11-05 20:43:00,60.2,51.1,30.13,ESE,106,11.0,21.0,72,0.00,,,0.00,Wunderground v.1.15,2013-11-06 02:43:00,
2013-11-05 20:48:00,60.1,51.0,30.13,SE,136,16.0,21.0,72,0.00,,,0.00,Wunderground v.1.15,2013-11-06 02:48:00,
2013-11-05 20:53:00,60.1,51.0,30.13,ESE,123,17.0,23.0,72,0.00,,,0.00,Wunderground v.1.15,2013-11-06 02:53:00,
2013-11-05 20:58:00,60.1,51.0,30.14,ESE,120,17.0,23.0,72,0.00,,,0.00,Wunderground v.1.15,2013-11-06 02:58:00,
2013-11-05 21:03:00,60.2,51.1,30.13,SE,125,12.0,18.0,72,0.00,,,0.00,Wunderground v.1.15,2013-11-06 03:03:00,
2013-11-05 21:08:00,60.1,51.0,30.14,SE,132,19.0,22.0,72,0.00,,,0.00,Wunderground v.1.15,2013-11-06 03:08:00,
2013-11-05 21:13:00,60.1,50.7,30.14,SE,128,11.0,20.0,71,0.00,,,0.00,Wunderground v.1.15,2013-11-06 03:13:00,
2013-11-05 21:18:00,60.1,50.7,30.14,ESE,119,16.0,24.0,71,0.00,,,0.00,Wunderground v.1.15,2013-11-06 03:18:00,
2013-11-05 21:23:00,60.1,50.7,30.14,SE,134,22.0,23.0,71,0.00,,,0.00,Wunderground v.1.15,2013-11-06 03:23:00,
2013-11-05 21:28:00,60.0,50.6,30.14,ESE,119,11.0,23.0,71,0.00,,,0.00,Wunderground v.1.15,2013-11-06 03:28:00,
2013-11-05 21:33:00,60.0,50.2,30.14,ESE,117,15.0,23.0,70,0.00,,,0.00,Wunderground v.1.15,2013-11-06 03:33:00,
2013-11-05 21:38:00,59.9,50.1,30.14,SE,131,19.0,24.0,70,0.00,,,0.00,Wunderground v.1.15,2013-11-06 03:38:00,
2013-11-05 21:43:00,59.8,50.0,30.14,SE,134,20.0,23.0,70,0.00,,,0.00,Wunderground v.1.15,2013-11-06 03:43:00,
2013-11-05 21:48:00,59.8,50.0,30.14,ESE,113,14.0,24.0,70,0.00,,,0.00,Wunderground v.1.15,2013-11-06 03:48:00,
2013-11-05 21:53:00,59.6,49.8,30.14,SE,132,15.0,23.0,70,0.00,,,0.00,Wunderground v.1.15,2013-11-06 03:53:00,
2013-11-05 21:58:00,59.5,49.7,30.14,SE,132,16.0,25.0,70,0.00,,,0.00,Wunderground v.1.15,2013-11-06 03:58:00,
2013-11-05 22:03:00,59.4,49.6,30.14,SE,131,20.0,22.0,70,0.00,,,0.00,Wunderground v.1.15,2013-11-06 04:03:00,
2013-11-05 22:08:00,59.2,49.8,30.15,West,279,13.0,22.0,71,0.00,,,0.00,Wunderground v.1.15,2013-11-06 04:08:00,
2013-11-05 22:13:00,59.1,49.7,30.15,SE,135,14.0,18.0,71,0.00,,,0.00,Wunderground v.1.15,2013-11-06 04:13:00,
2013-11-05 22:18:00,59.1,49.7,30.15,SE,124,14.0,18.0,71,0.00,,,0.00,Wunderground v.1.15,2013-11-06 04:18:00,
2013-11-05 22:23:00,59.1,49.3,30.15,SE,130,17.0,24.0,70,0.00,,,0.00,Wunderground v.1.15,2013-11-06 04:23:00,
2013-11-05 22:28:00,59.3,49.5,30.15,SE,129,21.0,24.0,70,0.00,,,0.00,Wunderground v.1.15,2013-11-06 04:28:00,
2013-11-05 22:33:00,59.5,49.3,30.15,SE,146,18.0,23.0,69,0.00,,,0.00,Wunderground v.1.15,2013-11-06 04:33:00,
2013-11-05 22:38:00,59.5,49.3,30.14,SE,125,13.0,23.0,69,0.00,,,0.00,Wunderground v.1.15,2013-11-06 04:38:00,
2013-11-05 22:43:00,59.5,49.3,30.15,ESE,118,17.0,25.0,69,0.00,,,0.00,Wunderground v.1.15,2013-11-06 04:43:00,
2013-11-05 22:48:00,59.5,49.3,30.15,SE,130,12.0,25.0,69,0.00,,,0.00,Wunderground v.1.15,2013-11-06 04:48:00,
2013-11-05 22:53:00,59.5,48.9,30.15,SSE,148,17.0,21.0,68,0.00,,,0.00,Wunderground v.1.15,2013-11-06 04:53:00,
2013-11-05 22:58:00,59.5,48.9,30.15,West,279,12.0,21.0,68,0.00,,,0.00,Wunderground v.1.15,2013-11-06 04:58:00,
2013-11-05 23:01:00,59.5,48.9,30.15,SE,141,16.0,19.0,68,0.00,,,0.00,Wunderground v.1.15,2013-11-06 05:01:00,
2013-11-05 23:06:00,59.4,48.8,30.15,SE,136,18.0,22.0,68,0.00,,,0.00,Wunderground v.1.15,2013-11-06 05:06:00,
2013-11-05 23:11:00,59.5,48.9,30.14,SE,140,20.0,21.0,68,0.00,,,0.00,Wunderground v.1.15,2013-11-06 05:11:00,
2013-11-05 23:16:00,59.4,48.8,30.14,West,279,18.0,25.0,68,0.00,,,0.00,Wunderground v.1.15,2013-11-06 05:16:00,
2013-11-05 23:21:00,59.2,48.6,30.14,West,279,20.0,22.0,68,0.00,,,0.00,Wunderground v.1.15,2013-11-06 05:21:00,
2013-11-05 23:26:00,59.1,48.5,30.14,SE,127,17.0,26.0,68,0.00,,,0.00,Wunderground v.1.15,2013-11-06 05:26:00,
2013-11-05 23:31:00,59.0,48.4,30.14,SE,135,22.0,25.0,68,0.00,,,0.00,Wunderground v.1.15,2013-11-06 05:31:00,
2013-11-05 23:36:00,59.1,48.5,30.14,West,279,15.0,25.0,68,0.00,,,0.00,Wunderground v.1.15,2013-11-06 05:36:00,
2013-11-05 23:41:00,59.0,48.4,30.13,SE,144,21.0,27.0,68,0.00,,,0.00,Wunderground v.1.15,2013-11-06 05:41:00,
2013-11-05 23:46:00,58.9,48.4,30.13,West,279,25.0,27.0,68,0.00,,,0.00,Wunderground v.1.15,2013-11-06 05:46:00,
2013-11-05 23:51:00,58.9,48.4,30.13,ESE,121,18.0,25.0,68,0.00,,,0.00,Wunderground v.1.15,2013-11-06 05:51:00,
2013-11-05 23:56:00,59.0,48.4,30.13,West,279,23.0,27.0,68,0.00,,,0.00,Wunderground v.1.15,2013-11-06 05:56:00,